Orangeburg, SC

11:15 AM EDT on April 26, 2017 (GMT -0400)
Orangeburg Municipal

Weather History for KOGB - March, 2014

Change the Weather History Date:

Tuesday, March 25, 2014

  Actual Average Record
Temperature  
Mean Temperature 50 °F 59 °F  
Max Temperature 59 °F 71 °F 89 °F (2007)
Min Temperature 40 °F 46 °F 27 °F (1956)
Degree Days  
Heating Degree Days 15 7  
Month to date heating degree days 326 240  
Since 1 July heating degree days 2190 2172  
Cooling Degree Days 0 1  
Month to date cooling degree days 0 17  
Year to date cooling degree days 6 20  
Moisture  
Dew Point 34 °F    
Average Humidity 61    
Maximum Humidity 82    
Minimum Humidity 24    
Precipitation  
Precipitation T in 0.14 in 1.69 in (1984)
Month to date precipitation 2.57 3.22  
Year to date precipitation 8.49 10.79  
Sea Level Pressure  
Sea Level Pressure 29.91 in    
Wind  
Wind Speed 10 mph (NNW)    
Max Wind Speed 25 mph    
Max Gust Speed 40 mph    
Visibility 10 miles    
Events Rain    
T = Trace of Precipitation, MM = Missing Value Source: NWS Daily Summary

Daily Weather History Graph

Daily Weather History Graph

Search for Another Location

Airport or City:

Trip Planner

Search our weather history database for the weather conditions in past years. The results will help you decide how hot, cold, wet, or windy it might be!

Date:

Astronomy

Mar. 25, 2014 Rise Set
Actual Time 7:20 AM EDT 7:38 PM EDT
Civil Twilight 6:55 AM EDT 8:03 PM EDT
Nautical Twilight 6:26 AM EDT 8:32 PM EDT
Astronomical Twilight 5:57 AM EDT 9:02 PM EDT
Moon 3:26 AM EDT (3/25) 2:21 PM EDT (3/25)
Length of Visible Light 13h 08m
Length of Day
12h 18m
Waning Crescent, 32% of the Moon is Illuminated
Mar 25
Waning Crescent
Mar 30
New
Apr 7
First Quarter
Apr 15
Full
Apr 22
Last Quarter

Hourly Weather History & Observations

Time (EDT) Temp. Windchill Dew Point Humidity Pressure Visibility Wind Dir Wind Speed Gust Speed Precip Events Conditions
12:53 AM 45.0 °F - 33.1 °F 63% 30.06 in 10.0 mi Calm Calm - N/A   Clear
1:53 AM 45.0 °F 43.5 °F 34.0 °F 65% 30.03 in 10.0 mi East 3.5 mph - N/A   Overcast
2:53 AM 46.0 °F 44.8 °F 34.0 °F 63% 30.01 in 10.0 mi ENE 3.5 mph - N/A   Overcast
3:53 AM 46.0 °F 43.9 °F 35.1 °F 66% 29.98 in 10.0 mi ESE 4.6 mph - N/A   Overcast
4:53 AM 46.0 °F - 36.0 °F 68% 29.95 in 10.0 mi Calm Calm - N/A   Overcast
5:53 AM 46.0 °F 43.1 °F 36.0 °F 68% 29.94 in 10.0 mi ESE 5.8 mph - N/A   Overcast
6:53 AM 45.0 °F 41.8 °F 37.0 °F 74% 29.90 in 10.0 mi ESE 5.8 mph - N/A   Overcast
7:53 AM 43.0 °F 40.3 °F 37.9 °F 82% 29.90 in 10.0 mi SE 4.6 mph - N/A   Partly Cloudy
8:53 AM 46.0 °F 42.5 °F 41.0 °F 83% 29.89 in 10.0 mi SSE 6.9 mph - N/A   Partly Cloudy
9:02 AM 46.0 °F 42.5 °F 41.0 °F 83% 29.89 in 10.0 mi SE 6.9 mph - N/A   Scattered Clouds
9:48 AM 46.4 °F - 42.8 °F 87% 29.89 in 10.0 mi Calm Calm - N/A   Overcast
9:53 AM 48.0 °F - 42.1 °F 80% 29.90 in 10.0 mi Calm Calm - N/A   Overcast
10:24 AM 48.0 °F - 42.1 °F 80% 29.90 in 10.0 mi North 4.6 mph - N/A   Overcast
10:53 AM 48.0 °F - 41.0 °F 77% 29.91 in 10.0 mi NW 6.9 mph - N/A   Overcast
11:53 AM 48.0 °F - 41.0 °F 77% 29.88 in 10.0 mi NNW 4.6 mph - N/A   Overcast
12:40 PM 52.0 °F - 42.1 °F 69% 29.84 in 10.0 mi Calm Calm - N/A   Overcast
12:53 PM 51.1 °F - 42.1 °F 71% 29.83 in 10.0 mi Variable 3.5 mph - N/A   Overcast
1:20 PM 52.0 °F - 42.1 °F 69% 29.81 in 10.0 mi West 4.6 mph - N/A   Overcast
1:53 PM 53.1 °F - 41.0 °F 64% 29.82 in 10.0 mi WNW 12.7 mph - N/A   Overcast
2:15 PM 52.0 °F - 41.0 °F 66% 29.83 in 9.0 mi WNW 15.0 mph 21.9 mph N/A   Overcast
2:53 PM 53.1 °F - 43.0 °F 69% 29.81 in 8.0 mi NW 10.4 mph 19.6 mph 0.00 in Rain Light Rain
3:53 PM 57.9 °F - 34.0 °F 41% 29.77 in 10.0 mi WNW 19.6 mph 26.5 mph 0.00 in   Scattered Clouds
4:53 PM 54.0 °F - 32.0 °F 43% 29.81 in 10.0 mi NNW 15.0 mph 31.1 mph N/A   Mostly Cloudy
5:53 PM 55.0 °F - 26.1 °F 33% 29.83 in 10.0 mi NW 16.1 mph 27.6 mph N/A   Overcast
6:53 PM 53.1 °F - 18.0 °F 25% 29.86 in 10.0 mi NNW 20.7 mph 32.2 mph 0.00 in   Overcast
7:53 PM 50.0 °F - 15.1 °F 25% 29.91 in 10.0 mi NW 18.4 mph 28.8 mph 0.00 in   Scattered Clouds
8:53 PM 48.0 °F - 16.0 °F 28% 29.96 in 10.0 mi NW 24.2 mph 33.4 mph 0.00 in Rain Light Rain
9:53 PM 46.0 °F 39.0 °F 15.1 °F 29% 30.01 in 10.0 mi WNW 17.3 mph 27.6 mph 0.00 in   Clear
10:53 PM 44.1 °F 39.0 °F 17.1 °F 34% 30.05 in 10.0 mi NW 9.2 mph 18.4 mph N/A   Clear
11:53 PM 42.1 °F 37.1 °F 17.1 °F 37% 30.08 in 10.0 mi NW 8.1 mph - N/A   Clear